EW9081 Weather Reports


time (UTC)temp
C
wind
direction
speed
KPH
gust
KPH
rain 1hr
cm
rain 24hr
cm
rain mn
cm
humidity
%
barometer
mb
20260505201430 16 269 1.6 6.4 0.00 0.00 0.00 75 1016.6
20260505201426 16 343 3.2 11.3 0.00 0.00 0.00 72 1016.4
20260505200426 16 275 3.2 6.4 0.00 0.00 0.00 74 1016.6
20260505195926 16 298 3.2 8.0 0.00 0.00 0.00 73 1016.6
20260505195426 16 310 1.6 8.0 0.00 0.00 0.00 72 1016.6
20260505194926 15 281 1.6 4.8 0.00 0.00 0.00 72 1016.6
20260505194426 15 276 1.6 6.4 0.00 0.00 0.00 73 1016.7
20260505193921 15 299 3.2 8.0 0.00 0.00 0.00 74 1016.7
20260505193422 15 305 3.2 8.0 0.00 0.00 0.00 72 1016.7
20260505192922 15 253 1.6 4.8 0.00 0.00 0.00 72 1016.6
20260505192419 15 333 1.6 4.8 0.00 0.00 0.00 74 1016.7
20260505191921 15 281 1.6 6.4 0.00 0.00 0.00 74 1016.7
20260505191421 15 298 1.6 6.4 0.00 0.00 0.00 72 1016.8
20260505190920 15 248 1.6 4.8 0.00 0.00 0.00 72 1016.8
20260505190421 15 272 0.0 4.8 0.00 0.00 0.00 74 1016.8
20260505185919 15 298 0.0 0.0 0.00 0.00 0.00 74 1016.7
20260505185418 15 298 0.0 1.6 0.00 0.00 0.00 75 1016.7
20260505184917 15 297 1.6 4.8 0.00 0.00 0.00 73 1016.7
20260505184417 15 297 3.2 6.4 0.00 0.00 0.00 76 1016.7
20260505183923 15 9 1.6 3.2 0.00 0.00 0.00 77 1016.6
20260505183918 15 309 3.2 6.4 0.00 0.00 0.00 74 1016.7
20260505182919 15 277 1.6 9.7 0.00 0.00 0.00 78 1016.6
20260505182419 14 298 1.6 9.7 0.00 0.00 0.00 74 1016.6
20260505181916 14 196 0.0 6.4 0.00 0.00 0.00 77 1016.4
20260505181415 14 275 1.6 3.2 0.00 0.00 0.00 75 1016.4
20260505180915 14 280 0.0 3.2 0.00 0.00 0.00 75 1016.4
20260505180414 14 285 1.6 4.8 0.00 0.00 0.00 76 1016.4
20260505175919 14 270 1.6 6.4 0.00 0.00 0.00 78 1016.4
20260505175915 14 288 1.6 4.8 0.00 0.00 0.00 76 1016.4
20260505174914 13 350 1.6 6.4 0.00 0.00 0.00 76 1016.4
20260505174414 13 315 1.6 3.2 0.00 0.00 0.00 78 1016.3
20260505173914 13 296 1.6 4.8 0.00 0.00 0.00 77 1016.3
20260505173414 13 296 3.2 4.8 0.00 0.00 0.00 77 1016.4
20260505172914 13 294 1.6 4.8 0.00 0.00 0.00 80 1016.3
20260505172415 13 231 1.6 4.8 0.00 0.00 0.00 79 1016.3
20260505171915 13 306 1.6 4.8 0.00 0.00 0.00 78 1016.2
20260505171413 13 355 3.2 6.4 0.00 0.00 0.00 78 1016.3
20260505170913 13 0 1.6 6.4 0.00 0.00 0.00 80 1016.2
20260505170413 13 13 1.6 6.4 0.00 0.00 0.00 79 1016.3
20260505165914 13 355 1.6 4.8 0.00 0.00 0.00 78 1016.2
20260505165414 13 12 3.2 4.8 0.00 0.00 0.00 79 1016.1
20260505164915 13 0 3.2 6.4 0.00 0.00 0.00 79 1016.1
20260505164413 13 294 3.2 6.4 0.00 0.00 0.00 80 1016.1
20260505163914 13 350 3.2 6.4 0.00 0.00 0.00 81 1016.1
20260505163413 13 325 3.2 6.4 0.00 0.00 0.00 79 1016.1
20260505162913 13 302 1.6 6.4 0.00 0.00 0.00 79 1016.0
20260505162415 13 301 1.6 6.4 0.00 0.00 0.00 79 1016.1
20260505161913 13 332 1.6 4.8 0.00 0.00 0.00 80 1016.0
20260505161415 13 315 1.6 4.8 0.00 0.00 0.00 81 1016.0
20260505160913 13 292 1.6 4.8 0.00 0.00 0.00 81 1016.0
20260505160414 13 309 3.2 6.4 0.00 0.00 0.00 81 1016.0
20260505152913 12 236 0.0 3.2 0.00 0.00 0.00 83 1016.0
20260505152409 12 197 0.0 3.2 0.00 0.00 0.00 82 1016.0
20260505151911 12 197 0.0 3.2 0.00 0.00 0.00 82 1016.0
20260505151409 12 196 0.0 3.2 0.00 0.00 0.00 83 1016.0
20260505150909 12 196 0.0 3.2 0.00 0.00 0.00 82 1015.9
20260505150410 12 196 0.0 3.2 0.00 0.00 0.00 83 1015.9
20260505140359 11 196 1.6 4.8 0.00 0.00 0.00 85 1015.5
20260505124900 11 255 0.0 3.2 0.00 0.00 0.00 85 1015.0
20260505124856 11 255 0.0 0.0 0.00 0.00 0.00 85 1015.0
20260505124509 11 255 0.0 3.2 0.00 0.00 0.00 85 1014.9
20260505123355 11 255 0.0 3.2 0.00 0.00 0.00 85 1014.9
20260505122856 11 255 0.0 3.2 0.00 0.00 0.00 85 1014.9
20260505122354 11 255 0.0 3.2 0.00 0.00 0.00 85 1014.8
20260505121856 11 255 0.0 3.2 0.00 0.00 0.00 85 1014.7
20260505121354 11 255 0.0 3.2 0.00 0.00 0.00 85 1014.8
20260505120853 11 255 0.0 3.2 0.00 0.00 0.00 85 1014.8
20260505120353 11 255 1.6 3.2 0.00 0.00 0.00 85 1014.8
20260505115853 11 257 0.0 3.2 0.00 0.00 0.00 85 1014.8
20260505115358 11 258 0.0 1.6 0.00 0.00 0.00 85 1014.8
20260505115352 11 258 0.0 1.6 0.00 0.00 0.00 85 1014.8
20260505115004 11 258 0.0 1.6 0.00 0.00 0.00 85 1014.8
20260505113851 11 259 0.0 3.2 0.00 0.00 0.00 85 1014.8
20260505113352 11 259 0.0 3.2 0.00 0.00 0.00 85 1014.8
20260505112852 11 259 1.6 4.8 0.00 0.00 0.00 85 1014.8
20260505112351 11 259 1.6 4.8 0.00 0.00 0.00 84 1014.7
20260505111851 11 234 1.6 8.0 0.00 0.00 0.00 85 1014.7
20260505111353 11 233 3.2 9.7 0.00 0.00 0.00 84 1014.7
20260505110850 11 266 3.2 9.7 0.00 0.00 0.00 84 1014.6
20260505110350 11 266 3.2 12.9 0.00 0.00 0.00 85 1014.6
20260505101845 11 261 1.6 8.0 0.00 0.00 0.00 85 1014.3
20260505101345 11 250 1.6 8.0 0.00 0.00 0.00 85 1014.3
20260505100842 11 257 3.2 11.3 0.00 0.00 0.00 85 1014.3
20260505100344 11 291 1.6 11.3 0.00 0.00 0.00 85 1014.3
20260505095843 11 254 1.6 6.4 0.00 0.00 0.00 85 1014.3
20260505095342 11 252 1.6 9.7 0.00 0.00 0.00 85 1014.3
20260505094843 11 250 1.6 9.7 0.00 0.00 0.00 85 1014.2
20260505094348 11 223 3.2 14.5 0.00 0.00 0.00 85 1014.2
20260505094343 11 250 3.2 11.3 0.00 0.00 0.00 85 1014.2
20260505093843 11 211 3.2 11.3 0.00 0.00 0.00 84 1014.2
20260505093446 11 257 3.2 14.5 0.00 0.00 0.00 85 1014.2
20260505092340 11 252 4.8 12.9 0.00 0.00 0.00 85 1014.2
20260505091844 11 268 3.2 9.7 0.00 0.00 0.00 86 1014.1
20260505091840 11 259 4.8 12.9 0.00 0.00 0.00 85 1014.2
20260505090836 11 247 3.2 9.7 0.00 0.00 0.00 86 1014.1
20260505090340 11 219 3.2 11.3 0.00 0.00 0.00 86 1014.1
20260505090336 11 257 3.2 9.7 0.00 0.00 0.00 86 1014.1
20260505085337 11 252 3.2 11.3 0.00 0.00 0.00 86 1014.0
20260505084837 11 291 1.6 6.4 0.00 0.00 0.00 87 1014.0
20260505084337 11 248 1.6 6.4 0.00 0.00 0.00 86 1014.0
20260505083837 11 254 1.6 9.7 0.00 0.00 0.00 86 1014.0
20260505083337 11 265 3.2 9.7 0.00 0.00 0.00 86 1013.9
20260505082837 11 260 3.2 9.7 0.00 0.00 0.00 86 1013.8
20260505082339 11 296 3.2 9.7 0.00 0.00 0.00 86 1013.8
20260505082335 11 254 3.2 11.3 0.00 0.00 0.00 86 1013.8
20260505081334 11 259 4.8 11.3 0.00 0.00 0.00 86 1013.7
20260505080835 11 232 3.2 12.9 0.00 0.00 0.00 86 1013.7
20260505080335 11 287 4.8 14.5 0.00 0.00 0.00 86 1013.7
20260505075834 11 313 4.8 14.5 0.00 0.00 0.00 86 1013.7
20260505075334 11 250 3.2 11.3 0.00 0.00 0.00 86 1013.6
20260505074836 11 271 3.2 11.3 0.00 0.00 0.00 86 1013.6
20260505074335 11 273 3.2 9.7 0.00 0.00 0.00 86 1013.6
20260505073838 11 250 3.2 11.3 0.00 0.00 0.00 85 1013.6
20260505073834 11 278 3.2 9.7 0.00 0.00 0.00 85 1013.6
20260505072834 11 287 3.2 11.3 0.00 0.00 0.00 85 1013.6
20260505072334 11 253 3.2 12.9 0.00 0.00 0.00 85 1013.5
20260505071834 11 259 3.2 12.9 0.00 0.00 0.00 85 1013.5
20260505071332 11 232 4.8 14.5 0.00 0.00 0.00 85 1013.5
20260505070832 11 270 4.8 14.5 0.00 0.00 0.00 85 1013.5
20260505070336 11 250 3.2 17.7 0.00 0.00 0.00 85 1013.4
20260505070332 11 261 4.8 17.7 0.00 0.00 0.00 85 1013.4
20260505065332 11 245 4.8 16.1 0.00 0.00 0.00 86 1013.5
20260505064834 11 211 6.4 16.1 0.00 0.00 0.00 86 1013.5
20260505064333 11 288 6.4 16.1 0.00 0.00 0.00 85 1013.4
20260505063834 11 263 4.8 16.1 0.00 0.00 0.00 85 1013.4
20260505063337 11 211 6.4 16.1 0.00 0.00 0.00 85 1013.3
20260505063333 11 220 4.8 14.5 0.00 0.00 0.00 86 1013.4
20260505062946 11 258 6.4 16.1 0.00 0.00 0.00 86 1013.4
20260505061833 11 247 6.4 16.1 0.00 0.00 0.00 86 1013.5
20260505061333 11 272 4.8 12.9 0.00 0.00 0.00 86 1013.4
20260505060832 11 230 4.8 19.3 0.00 0.00 0.00 87 1013.4
20260505060333 11 261 4.8 19.3 0.00 0.00 0.00 86 1013.4
20260505055832 11 277 6.4 14.5 0.00 0.00 0.00 86 1013.3
20260505055333 11 245 4.8 12.9 0.00 0.00 0.00 87 1013.2
20260505054833 11 215 3.2 12.9 0.00 0.00 0.00 87 1013.1
20260505054333 11 273 3.2 14.5 0.00 0.00 0.00 86 1013.2
20260505053833 11 262 4.8 16.1 0.00 0.00 0.00 86 1013.3
20260505053333 11 257 6.4 16.1 0.00 0.00 0.00 86 1013.3
20260505052833 11 265 6.4 24.1 0.00 0.00 0.00 86 1013.3
20260505052331 11 245 6.4 24.1 0.00 0.00 0.00 86 1013.3
20260505051833 11 232 6.4 20.9 0.00 0.00 0.00 86 1013.4
20260505051332 11 261 6.4 20.9 0.00 0.00 0.00 86 1013.4
20260505050837 11 265 4.8 14.5 0.00 0.00 0.00 86 1013.3
20260505050833 11 279 4.8 12.9 0.00 0.00 0.00 86 1013.3
20260505041327 11 287 6.4 17.7 0.00 0.00 0.00 84 1012.7
20260505041323 11 257 6.4 17.7 0.00 0.00 0.00 84 1012.6
20260505040327 12 244 6.4 16.1 0.00 0.00 0.00 83 1012.5
20260505040323 11 305 6.4 17.7 0.00 0.00 0.00 83 1012.5
20260505035323 12 190 6.4 14.5 0.00 0.00 0.00 83 1012.3
20260505034822 12 242 4.8 14.5 0.00 0.00 0.00 82 1012.3
20260505034322 12 306 4.8 17.7 0.00 0.00 0.00 82 1012.2
20260505033822 12 280 4.8 17.7 0.00 0.00 0.00 82 1012.2
20260505033323 12 253 6.4 16.1 0.00 0.00 0.00 82 1012.2
20260505032823 12 208 6.4 16.1 0.00 0.00 0.00 81 1012.2
20260505032324 12 233 4.8 14.5 0.00 0.00 0.00 81 1012.2
20260505031822 12 291 4.8 14.5 0.00 0.00 0.00 81 1012.1
20260505031323 12 272 4.8 16.1 0.00 0.00 0.00 80 1012.0
20260505030827 13 284 6.4 17.7 0.00 0.00 0.00 79 1012.0
20260505030823 12 294 4.8 17.7 0.00 0.00 0.00 80 1012.0
20260505030322 12 274 6.4 17.7 0.00 0.00 0.00 79 1012.0
20260505025323 13 269 6.4 20.9 0.00 0.00 0.00 78 1012.0
20260505024823 13 226 6.4 20.9 0.00 0.00 0.00 77 1011.9
20260505024328 14 223 6.4 19.3 0.00 0.00 0.00 76 1011.7
20260505024323 13 213 6.4 19.3 0.00 0.00 0.00 77 1011.8
20260505023940 15 239 8.0 24.1 0.00 0.00 0.00 74 1011.6
20260505023936 14 268 6.4 16.1 0.00 0.00 0.00 75 1011.7
20260505022823 14 286 8.0 22.5 0.00 0.00 0.00 75 1011.7
20260505022437 15 189 6.4 24.1 0.00 0.00 0.00 73 1011.6
20260505021322 15 285 8.0 20.9 0.00 0.00 0.00 73 1011.5
20260505020820 15 209 8.0 20.9 0.00 0.00 0.00 72 1011.6
20260505020320 15 246 6.4 20.9 0.00 0.00 0.00 71 1011.6
20260505015820 15 246 8.0 20.9 0.00 0.00 0.00 71 1011.6
20260505015321 16 254 6.4 19.3 0.00 0.00 0.00 71 1011.6
20260505014819 16 269 6.4 19.3 0.00 0.00 0.00 71 1011.6
20260505014319 16 277 6.4 20.9 0.00 0.00 0.00 70 1011.6
20260505013818 16 264 8.0 20.9 0.00 0.00 0.00 69 1011.5
20260505013323 16 226 8.0 17.7 0.00 0.00 0.00 70 1011.5
20260505013319 16 259 8.0 19.3 0.00 0.00 0.00 70 1011.6
20260505012323 17 256 8.0 19.3 0.00 0.00 0.00 68 1011.5
20260505012319 17 234 8.0 19.3 0.00 0.00 0.00 68 1011.6
20260505011319 17 248 6.4 19.3 0.00 0.00 0.00 67 1011.6
20260505010819 17 282 6.4 19.3 0.00 0.00 0.00 68 1011.5
20260505010320 17 259 6.4 19.3 0.00 0.00 0.00 67 1011.6
20260505005818 17 270 8.0 19.3 0.00 0.00 0.00 66 1011.5
20260505005319 18 263 6.4 17.7 0.00 0.00 0.00 66 1011.6
20260505004819 18 284 8.0 20.9 0.00 0.00 0.00 67 1011.5
20260505004320 18 290 6.4 20.9 0.00 0.00 0.00 67 1011.5
20260505003818 18 288 6.4 16.1 0.00 0.00 0.00 68 1011.4
20260505003319 18 299 6.4 14.5 0.00 0.00 0.00 67 1011.4
20260505002816 18 239 6.4 19.3 0.00 0.00 0.00 68 1011.4
20260505002316 18 314 6.4 19.3 0.00 0.00 0.00 67 1011.5
20260505001814 18 257 6.4 17.7 0.00 0.00 0.00 68 1011.4
20260505001314 18 213 8.0 22.5 0.00 0.00 0.00 67 1011.4
20260505000814 18 186 9.7 22.5 0.00 0.00 0.00 65 1011.5
20260505000312 19 257 9.7 20.9 0.00 0.00 0.00 65 1011.6
20260504235815 19 282 8.0 20.9 0.00 0.00 0.00 64 1011.6
20260504235811 19 290 9.7 17.7 0.00 0.00 0.00 64 1011.6
20260504234810 19 194 9.7 20.9 0.00 0.00 0.00 66 1011.6
20260504234309 20 257 8.0 20.9 0.00 0.00 0.00 64 1011.6
20260504233810 20 243 9.7 20.9 0.00 0.00 0.00 65 1011.6
20260504233309 19 218 11.3 22.5 0.00 0.00 0.00 64 1011.6
20260504232808 20 207 9.7 22.5 0.00 0.00 0.00 63 1011.6
20260504232309 20 277 8.0 19.3 0.00 0.00 0.00 64 1011.6
20260504231808 20 231 6.4 17.7 0.00 0.00 0.00 64 1011.6
20260504231308 20 264 8.0 19.3 0.00 0.00 0.00 64 1011.6
20260504230808 20 227 9.7 22.5 0.00 0.00 0.00 66 1011.7
20260504230308 20 225 9.7 22.5 0.00 0.00 0.00 64 1011.7
20260504225809 20 229 8.0 19.3 0.00 0.00 0.00 64 1011.7
20260504225314 20 293 8.0 17.7 0.00 0.00 0.00 65 1011.7
20260504225308 20 251 6.4 16.1 0.00 0.00 0.00 65 1011.7
20260504224808 20 283 6.4 16.1 0.00 0.00 0.00 66 1011.7
20260504223810 20 230 8.0 20.9 0.00 0.00 0.00 65 1011.8
20260504223806 20 248 8.0 17.7 0.00 0.00 0.00 68 1011.8
20260504222812 20 252 6.4 17.7 0.00 0.00 0.00 64 1011.8
20260504222807 20 241 8.0 20.9 0.00 0.00 0.00 64 1011.8
20260504221806 20 196 6.4 16.1 0.00 0.00 0.00 64 1011.8
20260504221307 20 205 8.0 16.1 0.00 0.00 0.00 66 1011.9
20260504220806 20 238 9.7 17.7 0.00 0.00 0.00 63 1011.9
20260504220310 20 220 8.0 17.7 0.00 0.00 0.00 64 1012.0
20260504220305 20 226 6.4 17.7 0.00 0.00 0.00 67 1012.0
20260504215304 20 267 6.4 16.1 0.00 0.00 0.00 67 1012.0
20260504214805 20 259 8.0 17.7 0.00 0.00 0.00 66 1012.0
20260504214305 20 176 9.7 19.3 0.00 0.00 0.00 64 1012.1
20260504213809 20 286 6.4 19.3 0.00 0.00 0.00 64 1012.2
20260504213805 20 222 8.0 19.3 0.00 0.00 0.00 63 1012.2
20260504212804 20 216 4.8 16.1 0.00 0.00 0.00 68 1012.3
20260504212309 20 287 8.0 20.9 0.00 0.00 0.00 66 1012.4
20260504212304 20 223 6.4 14.5 0.00 0.00 0.00 67 1012.2
20260504211803 20 244 6.4 14.5 0.00 0.00 0.00 69 1012.3
20260504211302 20 234 8.0 20.9 0.00 0.00 0.00 64 1012.3
20260504210302 21 285 6.4 16.1 0.00 0.00 0.00 66 1012.4
20260504205806 21 262 4.8 12.9 0.00 0.00 0.00 66 1012.5
20260504205802 20 273 6.4 16.1 0.00 0.00 0.00 68 1012.5
20260504204808 21 282 4.8 16.1 0.00 0.00 0.00 65 1012.7
20260504204802 21 265 4.8 12.9 0.00 0.00 0.00 65 1012.6
20260504203801 20 215 4.8 16.1 0.00 0.00 0.00 67 1012.7
20260504203307 20 229 4.8 16.1 0.00 0.00 0.00 62 1012.7
20260504203303 20 201 6.4 16.1 0.00 0.00 0.00 65 1012.7
20260504202915 20 293 4.8 14.5 0.00 0.00 0.00 65 1012.7
20260504201802 20 235 4.8 14.5 0.00 0.00 0.00 68 1012.7